Regional Weather Roundup
Issued by NWS Lake Charles, LA

Home | Current Version | Previous Version | Text Only | Print | Product List | Glossary On
Versions: 1 2 3 4 5 6 7 8 9 10 11 12 13 14 15 16 17 18 19 20 21 22 23 24 25 26 27 28 29 30 31 32 33 34 35 36 37 38 39 40 41 42 43 44 45 46 47 48 49 50
079
ASUS44 KLCH 240710
RWRLCH
REGIONAL WEATHER ROUNDUP
NATIONAL WEATHER SERVICE LAKE CHARLES LA
200 AM CDT MON JUL 24 2017

Note: "fair" indicates few or no clouds below 12,000 feet with no
significant weather and/or obstructions to visibility.


ACROSS SOUTHEAST TEXAS

CITY           SKY/WX    TMP DP  RH WIND       PRES   REMARKS
BEAUMONT       CLOUDY    78  75  90 CALM      29.94S
BEAUMONT CITY  FAIR      81  75  83 MISG      29.95S
ORANGE         CLOUDY    78  77  98 CALM      29.97S
JASPER           N/A     77  75  95 CALM      29.96S
$$

ACROSS CENTRAL LOUISIANA

CITY           SKY/WX    TMP DP  RH WIND       PRES   REMARKS
LEESVILLE      CLOUDY    76  74  91 CALM      29.94R
FULLERTON      FAIR      76  75  97 CALM      29.93R
ALEXANDRIA INT CLOUDY    75  74  96 SE5       29.93R
ESLER FIELD    CLOUDY    75  74  96 CALM      29.95R
DERIDDER       FAIR      76  75  96 S6        29.96S
OAKDALE        CLOUDY    75  74  96 S3        29.95F
OPELOUSAS      PTSUNNY   76  75  96 CALM      29.96S
$$

ACROSS SOUTHWEST AND SOUTH CENTRAL LOUISIANA

CITY           SKY/WX    TMP DP  RH WIND       PRES   REMARKS
SULPHUR        CLOUDY    80  77  92 SE3       29.96S
LAKE CHARLES   CLOUDY    79  78  97 CALM      29.95S
CHENNAULT INT  PTCLDY    77  76  97 E3        29.96S
CAMERON PHI    MOSUNNY   84  77  79 SW9G16    29.95S
DEQUINCY       FAIR      74  73  97 CALM      29.95F
JENNINGS       PTSUNNY   77  76  95 CALM      29.97S
LAFAYETTE      CLOUDY    78  77  96 CALM      29.97R
NEW IBERIA     CLOUDY    78  75  90 S3        29.98R
ABBEVILLE      FAIR      77  77 100 CALM      29.98R
PATTERSON      CLOUDY    77  75  93 CALM      29.99R
SALT POINT       N/A     83  78  85 VRB5      29.96S
$$

SELECTED SITES ACROSS THE REGION

CITY           SKY/WX    TMP DP  RH WIND       PRES   REMARKS
HOUSTON BUSH   CLOUDY    83  75  77 SW5       29.93S
HOUSTON HOBBY  CLOUDY    82  75  79 S7        29.92F
GALVESTON      CLOUDY    84  78  82 S14G24    29.93F
COLLEGE STAT   CLOUDY    82  75  79 S8        29.93F
CONROE         PTCLDY    80  74  81 SW8       29.94S
HUNTSVILLE     CLOUDY    81  73  76 SW6       29.94S
LUFKIN         CLOUDY    76  74  93 S5        29.93R
SHREVEPORT     CLOUDY    75  74  96 SE3       29.92S
MONROE         MOCLDY    74  72  93 S6        29.95R
NATCHEZ MS     NOT AVBL
BATON ROUGE    CLOUDY    78  75  90 S6        29.97S
N.O. INTL ARPT CLOUDY    78  74  87 CALM      29.98S
SLIDELL        CLOUDY    76  73  91 CALM      29.97F
$$

MARINE REPORTS

STATION/POSITION TIME  SKY/WX   TEMP    WIND        PRES    VSBY
                                AIR SEA DIR/SP/G
                 (UTC)          (F)     (DEG/KT/KT) (MB)    (MI)
BUOY 30 S HIGH I 0550            86 87  210/ 19/ 21 1013.1
WVE H/P(F/S)=  4/ 6

SEA RIM ST PARK  0700            85     220/ 12/ 16 1014.6R
PORT ARTHUR      0648            83 87  200/  6/  8 1014.3R
SABINE PASS N    0648            84 88  210/  5/ 10 1015.6R
TEXAS POINT      NOT AVBL
CALCASIEU PASS   0648            85 85  240/ 13/ 16 1013.6R
LK CHARLES BEACH 0648            81 81              1014.8R
MARSH ISLAND     NOT AVBL
FRESH WATER LOCK 0648            83 84  210/  9/ 12 1014.7R
AMERADA PASS     0648            81 85  190/  4/  9 1015.0S
$$




USA.gov is the U.S. government's official web portal to all federal, state and local government web resources and services.